Regional Weather Roundup
Issued by NWS Sioux Falls, SD

Home | Current Version | Previous Version | Graphics & Text | Print | Product List | Glossary On
Versions: 1 2 3 4 5 6 7 8 9 10 11 12 13 14 15 16 17 18 19 20 21 22 23 24 25 26 27 28 29 30 31 32 33 34 35 36 37 38 39 40 41 42 43 44 45 46 47 48 49 50
000
ASUS43 KFSD 301802
RWRFSD

WEATHER ROUNDUP FOR SE SOUTH DAKOTA/SW MINNESOTA/NW IOWA
NATIONAL WEATHER SERVICE SIOUX FALLS SD
100 PM CDT TUE JUN 30 2015

NOTE: "FAIR" INDICATES FEW OR NO CLOUDS BELOW 12,000 FEET WITH NO
SIGNIFICANT WEATHER AND OR OBSTRUCTIONS TO VISIBILITY.


SDZ038>040-050-052>070-301900-
SOUTHEAST SOUTH DAKOTA

CITY           SKY/WX    TMP DP  RH WIND       PRES   REMARKS
BROOKINGS      PTSUNNY   73  63  68 SE6       29.95F
CHAMBERLAIN    CLOUDY    76  65  67 SE15      29.91F
6HR MIN TEMP:  66; 6HR MAX TEMP:  77;

HURON          CLOUDY    71  66  84 S7        29.92R
6HR MIN TEMP:  67; 6HR MAX TEMP:  71; 6HR PCP:  0.01;

MADISON        FAIR      73  66  78 SE8       29.94F
MITCHELL       RAIN      70  68  93 SW8       29.92F FOG
6HR MIN TEMP:  67; 6HR MAX TEMP:  70; 6HR PCP:  0.42;

SIOUX FALLS    CLOUDY    75  63  66 SE3       29.93F
6HR MIN TEMP:  65; 6HR MAX TEMP:  76; 6HR PCP: TRACE;

WINNER         FAIR      84  57  39 SE21G28   29.90F
YANKTON        CLOUDY    70  64  83 CALM      29.92R
$$

MNZ071-072-080-081-089-090-097-098-301900-
SOUTHWEST MINNESOTA

CITY           SKY/WX    TMP DP  RH WIND       PRES   REMARKS
FAIRMONT       MOSUNNY   73  61  64 NE7       29.93S
JACKSON        MOSUNNY   72  63  73 N7        29.96S
LUVERNE        PTSUNNY   77  64  65 CALM      29.95F
MARSHALL       PTSUNNY   70  59  68 E7          N/A
6HR MIN TEMP:  61; 6HR MAX TEMP:  70;

MONTEVIDEO     CLOUDY    72  61  68 SE5       29.95F
PIPESTONE      PTSUNNY   75  63  64 S3        29.96S
REDWOOD FALLS  PTSUNNY   73  59  61 E6        29.94F
TRACY          PTSUNNY   71  63  75 E5        29.96F
WINDOM         PTSUNNY   72  61  68 CALM      29.96S
WORTHINGTON    MOSUNNY   72  63  73 N3        29.96S
$$

IAZ001>003-012>014-020>022-031-032-NEZ013-014-SDZ071-301900-
NORTHWEST IOWA

CITY           SKY/WX    TMP DP  RH WIND       PRES   REMARKS
DENISON        CLOUDY    73  68  83 W7        29.94R
ESTHERVILLE    MOSUNNY   74  64  71 N8        29.93F
SIOUX CITY     CLOUDY    73  66  78 CALM      29.94F
6HR MIN TEMP:  67; 6HR MAX TEMP:  74;

SPENCER        PTSUNNY   78  63  59 NW3       29.94S
6HR MIN TEMP:  61; 6HR MAX TEMP:  78;

$$

ABBREVIATIONS USED IN REMARKS
   TC - TEMPERATURE IN CELSIUS
  WCI - WIND CHILL INDEX
   HX - HEAT INDEX
  VSB - VISIBILITY




USA.gov is the U.S. government's official web portal to all federal, state and local government web resources and services.